Flag for Namibia Weather past 2 weeks in Windhoek, Namibia

Now
61 °F

Passing clouds.


Feels Like: 61 °F
Forecast: 64 / 81 °F
Wind: 7 mph from East

Location: Windhoek

Current Time: Jan 26, 2015 at 7:11:37 AM

Latest Report: Jan 26, 2015 at 6:00 AM


Visibility: N/A

Pressure: 30.12 "Hg

Humidity: 94%

Dew point: 59 °F

Location of WindhoekLocation

Historic Weather in Windhoek — Graph

°F

Windhoek temperature yesterday

Maximum temperature yesterday: 79 °F (at 3:00 PM)
Minimum temperature yesterday: 61 °F (at 8:00 PM)
Average temperature yesterday: 66 °F

Past Weeks' High & Low Weather Summary

 TemperatureHumidityPressure
High93 °F (Jan 18, 3:00 PM)94% (Jan 25, 8:00 PM)30.30 "Hg (Jan 25, 8:00 PM)
Low61 °F (Jan 24, 7:00 AM)7% (Jan 18, 3:00 PM)29.98 "Hg (Jan 19, 6:00 PM)
Average75 °F43%30.13 "Hg
* Reported Jan 11 6:00 AM — Jan 26 6:00 AM, Windhoek, Weather by CustomWeather, © 2014

Note: Actual official high and low records may vary slightly from our data, if they occured in-between our weather recording intervals... More about our weather records

Advertising

Windhoek weather history for previous 24 hours

 ConditionsComfort  
Time TempWeatherWind HumidityBarometerVisibility
6:00 AM
Jan 26
61 °FPassing clouds.7 mph94%30.12 "HgN/A
5:00 AM63 °FMild.5 mph88%30.12 "HgN/A
4:00 AM63 °FMild.3 mph94%30.09 "HgN/A
3:00 AM63 °FMild.2 mph94%30.12 "HgN/A
2:00 AM61 °FCool.3 mph94%30.12 "HgN/A
1:00 AM63 °FMild.2 mph94%30.15 "HgN/A
12:00 AM63 °FMild.2 mph88%30.15 "HgN/A
11:00 PM
Jan 25
61 °FCool.3 mph94%30.12 "HgN/A
10:00 PM61 °FCool.7 mph94%30.12 "HgN/A
9:00 PM61 °FCool.1 mph94%30.15 "HgN/A
8:00 PM61 °FCool.6 mph94%30.12 "HgN/A
7:00 PM63 °FMild.3 mph83%30.07 "HgN/A
6:00 PM72 °FScattered showers. Partly sunny.7 mph53%30.01 "HgN/A
3:00 PM79 °FScattered showers. Scattered clouds.5 mph45%30.07 "HgN/A
1:00 PM75 °FSprinkles. Broken clouds.7 mph44%30.09 "HgN/A
11:00 AM77 °FScattered clouds.8 mph44%30.12 "HgN/A
10:00 AM72 °FPartly sunny.5 mph50%30.12 "HgN/A
8:00 AM64 °FLight rain. Partly sunny.5 mph64%30.12 "HgN/A
7:00 AM64 °FMild.6 mph64%30.12 "HgN/A
Weather by CustomWeather, © 2014

See weather overviewHow to use our weather pages